Time,TemperatureF,DewpointF,PressureIn,WindDirection,WindDirectionDegrees,WindSpeedMPH,WindSpeedGustMPH,Humidity,HourlyPrecipIn,Conditions,Clouds,dailyrainin,SoftwareType,DateUTC
2013-01-28 00:17:00,24.1,4.0,30.45,West,277,1.0,3.0,43,0.00,,,0.00,weatherlink.com 1.10,2013-01-28 05:17:00,
2013-01-28 00:32:00,24.7,4.0,30.46,WNW,297,0.0,3.0,42,0.00,,,0.00,weatherlink.com 1.10,2013-01-28 05:32:00,
2013-01-28 00:47:00,24.7,5.0,30.46,WNW,288,1.0,3.0,43,0.00,,,0.00,weatherlink.com 1.10,2013-01-28 05:47:00,
2013-01-28 01:02:00,24.6,5.0,30.46,WNW,297,2.0,3.0,44,0.00,,,0.00,weatherlink.com 1.10,2013-01-28 06:02:00,
2013-01-28 01:17:00,24.6,5.0,30.46,WNW,285,2.0,3.0,44,0.00,,,0.00,weatherlink.com 1.10,2013-01-28 06:17:00,
2013-01-28 01:33:00,24.0,6.0,30.46,WNW,285,1.0,2.0,46,0.00,,,0.00,weatherlink.com 1.10,2013-01-28 06:33:00,
2013-01-28 01:48:00,24.6,5.0,30.45,WNW,293,2.0,5.0,44,0.00,,,0.00,weatherlink.com 1.10,2013-01-28 06:48:00,
2013-01-28 02:03:00,24.8,8.0,30.46,WNW,293,0.0,3.0,48,0.00,,,0.00,weatherlink.com 1.10,2013-01-28 07:03:00,
2013-01-28 02:18:00,24.9,6.0,30.45,WNW,297,2.0,3.0,45,0.00,,,0.00,weatherlink.com 1.10,2013-01-28 07:18:00,
2013-01-28 02:33:00,24.7,6.0,30.45,West,280,2.0,3.0,44,0.00,,,0.00,weatherlink.com 1.10,2013-01-28 07:33:00,
2013-01-28 02:48:00,24.6,6.0,30.45,WNW,285,1.0,3.0,46,0.00,,,0.00,weatherlink.com 1.10,2013-01-28 07:48:00,
2013-01-28 03:03:00,24.5,6.0,30.44,West,276,0.0,2.0,46,0.00,,,0.00,weatherlink.com 1.10,2013-01-28 08:03:00,
2013-01-28 03:18:00,24.0,6.0,30.44,WNW,282,1.0,3.0,46,0.00,,,0.00,weatherlink.com 1.10,2013-01-28 08:18:00,
2013-01-28 03:33:00,-999.0,-99.9,30.44,North,-999,-999.0,-999.0,-999,0.00,,,0.00,weatherlink.com 1.10,2013-01-28 08:33:00,
2013-01-28 03:48:00,-999.0,-99.9,30.43,North,-999,-999.0,-999.0,-999,0.00,,,0.00,weatherlink.com 1.10,2013-01-28 08:48:00,
2013-01-28 04:03:00,-999.0,-99.9,30.43,North,-999,-999.0,-999.0,-999,0.00,,,0.00,weatherlink.com 1.10,2013-01-28 09:03:00,
2013-01-28 04:18:00,-999.0,-99.9,30.43,North,-999,-999.0,-999.0,-999,0.00,,,0.00,weatherlink.com 1.10,2013-01-28 09:18:00,
2013-01-28 04:33:00,-999.0,-99.9,30.42,North,-999,-999.0,-999.0,-999,0.00,,,0.00,weatherlink.com 1.10,2013-01-28 09:33:00,
2013-01-28 04:48:00,-999.0,-99.9,30.43,North,-999,-999.0,-999.0,-999,0.00,,,0.00,weatherlink.com 1.10,2013-01-28 09:48:00,
2013-01-28 05:03:00,-999.0,-99.9,30.42,North,-999,-999.0,-999.0,-999,0.00,,,0.00,weatherlink.com 1.10,2013-01-28 10:03:00,
2013-01-28 05:18:00,-999.0,-99.9,30.42,North,-999,-999.0,-999.0,-999,0.00,,,0.00,weatherlink.com 1.10,2013-01-28 10:18:00,
2013-01-28 05:33:00,-999.0,-99.9,30.42,North,-999,-999.0,-999.0,-999,0.00,,,0.00,weatherlink.com 1.10,2013-01-28 10:33:00,
2013-01-28 05:48:00,-999.0,-99.9,30.42,North,-999,-999.0,-999.0,-999,0.00,,,0.00,weatherlink.com 1.10,2013-01-28 10:48:00,
2013-01-28 06:03:00,-999.0,-99.9,30.42,North,-999,-999.0,-999.0,-999,0.00,,,0.00,weatherlink.com 1.10,2013-01-28 11:03:00,
2013-01-28 06:19:00,-999.0,-99.9,30.42,North,-999,-999.0,-999.0,-999,0.00,,,0.00,weatherlink.com 1.10,2013-01-28 11:19:00,
2013-01-28 06:34:00,-999.0,-99.9,30.41,North,-999,-999.0,-999.0,-999,0.00,,,0.00,weatherlink.com 1.10,2013-01-28 11:34:00,
2013-01-28 06:49:00,-999.0,-99.9,30.41,North,-999,-999.0,-999.0,-999,0.00,,,0.00,weatherlink.com 1.10,2013-01-28 11:49:00,
2013-01-28 07:04:00,-999.0,-99.9,30.42,North,-999,-999.0,-999.0,-999,0.00,,,0.00,weatherlink.com 1.10,2013-01-28 12:04:00,
2013-01-28 07:19:00,-999.0,-99.9,30.42,North,-999,-999.0,-999.0,-999,0.00,,,0.00,weatherlink.com 1.10,2013-01-28 12:19:00,
2013-01-28 07:34:00,-999.0,-99.9,30.42,North,-999,-999.0,-999.0,-999,0.00,,,0.00,weatherlink.com 1.10,2013-01-28 12:34:00,
2013-01-28 07:56:00,-999.0,-99.9,30.41,North,-999,-999.0,-999.0,-999,0.00,,,0.00,weatherlink.com 1.10,2013-01-28 12:56:00,
2013-01-28 08:04:00,-999.0,-99.9,30.42,North,-999,-999.0,-999.0,-999,0.00,,,0.00,weatherlink.com 1.10,2013-01-28 13:04:00,
2013-01-28 08:19:00,27.6,11.0,30.42,WNW,288,1.0,1.0,49,0.00,,,0.00,weatherlink.com 1.10,2013-01-28 13:19:00,
2013-01-28 08:34:00,28.3,11.0,30.41,NW,312,0.0,1.0,49,0.00,,,0.00,weatherlink.com 1.10,2013-01-28 13:34:00,
2013-01-28 08:49:00,28.9,11.0,30.40,NW,312,0.0,1.0,47,0.00,,,0.00,weatherlink.com 1.10,2013-01-28 13:49:00,
2013-01-28 09:04:00,29.3,9.0,30.40,WNW,297,0.0,1.0,42,0.00,,,0.00,weatherlink.com 1.10,2013-01-28 14:04:00,
2013-01-28 09:19:00,30.1,10.0,30.39,WNW,298,0.0,0.0,43,0.00,,,0.00,weatherlink.com 1.10,2013-01-28 14:19:00,
2013-01-28 09:34:00,30.8,12.0,30.39,WNW,297,0.0,1.0,46,0.00,,,0.00,weatherlink.com 1.10,2013-01-28 14:34:00,
2013-01-28 09:49:00,32.1,14.0,30.39,North,4,0.0,2.0,47,0.00,,,0.00,weatherlink.com 1.10,2013-01-28 14:49:00,
2013-01-28 10:04:00,33.3,17.0,30.39,WNW,283,1.0,1.0,51,0.00,,,0.00,weatherlink.com 1.10,2013-01-28 15:04:00,
2013-01-28 10:19:00,32.9,17.0,30.39,West,278,1.0,2.0,53,0.00,,,0.00,weatherlink.com 1.10,2013-01-28 15:19:00,
2013-01-28 10:34:00,32.6,17.0,30.39,WNW,285,3.0,4.0,52,0.00,,,0.00,weatherlink.com 1.10,2013-01-28 15:34:00,
2013-01-28 10:49:00,33.0,18.0,30.38,West,274,1.0,3.0,54,0.00,,,0.00,weatherlink.com 1.10,2013-01-28 15:49:00,
2013-01-28 11:04:00,34.0,18.0,30.36,WNW,285,2.0,5.0,53,0.00,,,0.00,weatherlink.com 1.10,2013-01-28 16:04:00,
2013-01-28 11:19:00,34.7,20.0,30.36,West,281,2.0,4.0,55,0.00,,,0.00,weatherlink.com 1.10,2013-01-28 16:19:00,
2013-01-28 11:34:00,34.4,20.0,30.34,West,271,2.0,5.0,57,0.00,,,0.00,weatherlink.com 1.10,2013-01-28 16:34:00,
2013-01-28 11:49:00,33.6,23.0,30.32,West,278,7.0,8.0,65,0.00,,,0.00,weatherlink.com 1.10,2013-01-28 16:49:00,
2013-01-28 12:04:00,33.3,24.0,30.31,WNW,297,2.0,7.0,69,0.00,,,0.00,weatherlink.com 1.10,2013-01-28 17:04:00,
2013-01-28 12:19:00,33.0,24.0,30.30,West,280,2.0,6.0,70,0.00,,,0.00,weatherlink.com 1.10,2013-01-28 17:19:00,
2013-01-28 12:34:00,32.2,26.0,30.29,North,356,4.0,7.0,77,0.00,,,0.00,weatherlink.com 1.10,2013-01-28 17:34:00,
2013-01-28 12:49:00,31.4,27.0,30.29,NNW,329,5.0,6.0,83,0.00,,,0.00,weatherlink.com 1.10,2013-01-28 17:49:00,
2013-01-28 13:04:00,30.7,27.0,30.27,WNW,283,1.0,7.0,86,0.00,,,0.00,weatherlink.com 1.10,2013-01-28 18:04:00,
2013-01-28 13:20:00,30.1,27.0,30.25,West,278,0.0,4.0,88,0.00,,,0.00,weatherlink.com 1.10,2013-01-28 18:20:00,
2013-01-28 13:35:00,30.1,27.0,30.23,WNW,285,0.0,2.0,89,0.00,,,0.00,weatherlink.com 1.10,2013-01-28 18:35:00,
2013-01-28 13:50:00,30.5,28.0,30.22,WNW,285,0.0,0.0,90,0.00,,,0.00,weatherlink.com 1.10,2013-01-28 18:50:00,
2013-01-28 14:05:00,30.9,29.0,30.21,WNW,285,0.0,0.0,91,0.00,,,0.00,weatherlink.com 1.10,2013-01-28 19:05:00,
2013-01-28 14:20:00,31.0,29.0,30.22,WNW,285,0.0,1.0,91,0.00,,,0.00,weatherlink.com 1.10,2013-01-28 19:20:00,
2013-01-28 14:35:00,31.4,29.0,30.19,SSW,194,0.0,0.0,91,0.00,,,0.00,weatherlink.com 1.10,2013-01-28 19:35:00,
2013-01-28 14:50:00,31.7,29.0,30.18,South,189,0.0,0.0,91,0.00,,,0.00,weatherlink.com 1.10,2013-01-28 19:50:00,
2013-01-28 15:05:00,32.0,30.0,30.17,SSE,153,0.0,1.0,92,0.00,,,0.00,weatherlink.com 1.10,2013-01-28 20:05:00,
2013-01-28 15:20:00,32.4,30.0,30.15,SE,143,0.0,1.0,92,0.00,,,0.00,weatherlink.com 1.10,2013-01-28 20:20:00,
2013-01-28 15:35:00,32.8,31.0,30.13,ESE,110,2.0,2.0,92,0.00,,,0.00,weatherlink.com 1.10,2013-01-28 20:35:00,
2013-01-28 15:50:00,32.9,31.0,30.13,SSE,166,1.0,3.0,93,0.00,,,0.00,weatherlink.com 1.10,2013-01-28 20:50:00,
2013-01-28 16:05:00,33.4,32.0,30.11,SE,129,1.0,4.0,93,0.00,,,0.00,weatherlink.com 1.10,2013-01-28 21:05:00,
2013-01-28 16:20:00,33.8,32.0,30.11,SSE,163,0.0,2.0,94,0.00,,,0.00,weatherlink.com 1.10,2013-01-28 21:20:00,
2013-01-28 16:35:00,34.2,33.0,30.10,WSW,255,1.0,4.0,94,0.00,,,0.00,weatherlink.com 1.10,2013-01-28 21:35:00,
2013-01-28 16:50:00,34.5,33.0,30.10,WSW,245,2.0,3.0,94,0.00,,,0.00,weatherlink.com 1.10,2013-01-28 21:50:00,
2013-01-28 17:05:00,34.9,34.0,30.10,West,277,2.0,3.0,95,0.00,,,0.00,weatherlink.com 1.10,2013-01-28 22:05:00,
2013-01-28 17:20:00,35.1,34.0,30.09,West,278,0.0,2.0,95,0.00,,,0.00,weatherlink.com 1.10,2013-01-28 22:20:00,
2013-01-28 17:35:00,35.2,34.0,30.09,West,267,1.0,1.0,95,0.00,,,0.00,weatherlink.com 1.10,2013-01-28 22:35:00,
2013-01-28 17:50:00,35.7,34.0,30.09,WNW,290,1.0,2.0,95,0.00,,,0.00,weatherlink.com 1.10,2013-01-28 22:50:00,
2013-01-28 18:05:00,35.9,35.0,30.08,WNW,300,1.0,3.0,95,0.00,,,0.00,weatherlink.com 1.10,2013-01-28 23:05:00,
2013-01-28 18:20:00,36.2,35.0,30.07,West,281,2.0,2.0,95,0.01,,,0.01,weatherlink.com 1.10,2013-01-28 23:20:00,
2013-01-28 18:35:00,36.5,35.0,30.06,West,277,2.0,4.0,95,0.02,,,0.02,weatherlink.com 1.10,2013-01-28 23:35:00,
2013-01-28 18:50:00,36.6,35.0,30.06,WNW,297,2.0,3.0,95,0.03,,,0.03,weatherlink.com 1.10,2013-01-28 23:50:00,
2013-01-28 19:05:00,36.6,35.0,30.05,West,276,1.0,3.0,95,0.04,,,0.04,weatherlink.com 1.10,2013-01-29 00:05:00,
2013-01-28 19:20:00,36.8,36.0,30.04,WNW,285,2.0,4.0,95,0.04,,,0.05,weatherlink.com 1.10,2013-01-29 00:20:00,
2013-01-28 19:50:00,36.9,36.0,30.04,WNW,300,2.0,6.0,95,0.04,,,0.01,weatherlink.com 1.10,2013-01-29 00:50:00,
2013-01-28 20:05:00,36.6,35.0,30.02,WNW,283,2.0,5.0,95,0.03,,,0.01,weatherlink.com 1.10,2013-01-29 01:05:00,
2013-01-28 20:21:00,36.5,35.0,30.03,WNW,293,3.0,6.0,95,0.04,,,0.03,weatherlink.com 1.10,2013-01-29 01:21:00,
2013-01-28 20:36:00,36.1,35.0,30.03,NNW,334,4.0,7.0,95,0.04,,,0.04,weatherlink.com 1.10,2013-01-29 01:36:00,
2013-01-28 20:51:00,35.9,35.0,30.02,West,277,2.0,9.0,95,0.03,,,0.04,weatherlink.com 1.10,2013-01-29 01:51:00,
2013-01-28 21:06:00,35.8,35.0,30.00,West,274,3.0,5.0,95,0.04,,,0.05,weatherlink.com 1.10,2013-01-29 02:06:00,
2013-01-28 21:21:00,35.6,34.0,30.00,WNW,282,1.0,4.0,95,0.02,,,0.05,weatherlink.com 1.10,2013-01-29 02:21:00,
2013-01-28 21:36:00,35.6,34.0,29.99,WNW,293,1.0,4.0,95,0.01,,,0.05,weatherlink.com 1.10,2013-01-29 02:36:00,
2013-01-28 21:51:00,35.5,34.0,29.99,NW,321,3.0,5.0,95,0.01,,,0.05,weatherlink.com 1.10,2013-01-29 02:51:00,
2013-01-28 22:06:00,35.5,34.0,29.99,NW,305,1.0,7.0,94,0.00,,,0.05,weatherlink.com 1.10,2013-01-29 03:06:00,
2013-01-28 22:21:00,35.6,34.0,29.99,WNW,295,2.0,5.0,94,0.01,,,0.06,weatherlink.com 1.10,2013-01-29 03:21:00,
2013-01-28 22:36:00,35.9,34.0,30.00,WNW,301,1.0,6.0,94,0.01,,,0.06,weatherlink.com 1.10,2013-01-29 03:36:00,
2013-01-28 22:51:00,35.9,34.0,29.99,NW,311,6.0,7.0,94,0.01,,,0.06,weatherlink.com 1.10,2013-01-29 03:51:00,
2013-01-28 23:06:00,36.0,34.0,29.99,NW,304,2.0,5.0,93,0.01,,,0.06,weatherlink.com 1.10,2013-01-29 04:06:00,
2013-01-28 23:21:00,35.8,34.0,29.99,WNW,301,3.0,4.0,93,0.00,,,0.06,weatherlink.com 1.10,2013-01-29 04:21:00,
2013-01-28 23:36:00,35.8,34.0,29.99,WNW,295,1.0,5.0,94,0.01,,,0.07,weatherlink.com 1.10,2013-01-29 04:36:00,
2013-01-28 23:51:00,35.6,34.0,29.99,NW,307,2.0,6.0,94,0.01,,,0.07,weatherlink.com 1.10,2013-01-29 04:51:00,